Wind_Gust
13 13 13 14 13 13 13 13 12 12 13 12 12 13 13 13 14 14 14 15 15 15 15 14 14 14 14 14 14 14 12 22 22 21 21 17 9 6 8 13 8 8 10 18 20 21 19 19 23 20 26 26 23 26 17 27 19 22 25 27 24 27 22 22 24 26 26 24 21 21 21 18 18 22 22 25 23 24 24 30 29 28 26 23 20 18 17 15
13 13 13 14 14 14 14 13 13 13 13 13 13 13 13 14 14 15 15 15 15 14 14 14 13 14 13 13 14 10 18 21 23 24 22 11 11 7 8 8 8 10 11 21 22 20 21 21 21 22 26 25 17 23 19 21 23 24 24 25 23 23 22 23 24 29 26 20 24 21 25 24 20 20 27 24 23 23 26 26 26 27 25 23 21 18 17 16
12 13 14 14 14 14 14 14 14 13 13 14 13 13 14 14 14 14 15 15 14 13 14 14 12 12 13 12 11 11 17 19 24 23 15 9 11 10 8 10 10 10 18 22 24 24 21 21 19 23 21 22 22 25 17 28 22 26 20 19 22 23 24 22 22 20 24 22 20 22 19 19 16 24 29 24 25 21 24 27 24 27 23 22 22 18 17 17
13 13 14 14 15 14 14 14 14 14 14 14 14 14 14 14 15 15 14 15 14 13 13 13 13 11 12 13 8 17 19 23 21 19 19 12 10 9 9 9 12 16 22 28 28 32 23 18 19 20 22 20 24 27 25 32 21 27 24 24 23 20 19 20 23 25 26 25 21 23 18 20 26 24 26 25 24 24 24 22 23 27 24 24 23 20 18 19
13 14 14 15 14 14 14 14 15 15 15 14 14 14 14 14 14 15 14 14 13 13 13 13 12 12 12 11 11 18 18 16 23 18 22 15 10 9 9 10 14 21 23 26 28 20 21 18 27 32 31 25 21 22 30 31 30 22 23 24 22 23 21 21 24 29 27 24 25 21 21 23 22 27 26 21 18 25 28 26 27 27 26 25 23 21 21 19
14 15 15 14 15 14 15 15 15 16 15 14 14 14 14 14 14 14 14 13 12 13 13 13 12 12 12 10 19 19 21 29 16 20 17 15 11 10 11 11 17 22 27 28 19 18 16 17 21 26 34 33 27 27 23 25 22 22 23 23 26 24 20 18 22 23 23 24 20 20 23 22 21 21 25 24 23 20 29 29 28 25 25 24 22 23 22 20
15 15 15 15 15 15 15 16 16 15 15 15 14 14 14 14 14 14 14 13 12 12 13 13 13 11 11 6 23 19 20 34 16 21 19 14 13 12 11 15 15 22 25 26 20 23 17 15 16 19 25 26 29 32 22 19 22 22 27 27 26 22 22 22 21 22 22 22 25 29 22 25 22 24 21 26 20 18 22 23 25 26 26 24 24 22 21 22
15 15 16 15 15 15 16 16 16 16 15 15 15 14 14 14 14 14 13 13 13 13 13 13 12 12 9 18 18 19 23 26 25 22 16 14 16 18 17 20 22 21 26 25 18 17 15 15 17 22 20 21 23 23 20 23 20 21 24 21 27 19 22 22 20 23 21 21 25 24 27 25 24 23 21 20 18 16 19 21 27 24 23 24 25 25 22 20
15 16 16 15 15 15 16 16 16 15 15 15 15 14 14 15 14 13 13 13 13 13 13 12 12 10 8 18 23 25 24 19 18 23 25 23 21 21 24 22 21 25 31 25 14 14 20 20 18 24 24 22 21 24 27 21 23 20 23 20 21 29 29 26 26 21 19 23 24 26 27 26 27 25 27 20 19 16 15 20 22 23 23 24 25 23 21 21
16 16 15 15 15 15 16 16 16 15 15 16 15 14 15 14 14 12 13 13 14 13 13 13 13 8 16 19 23 22 21 19 20 23 24 23 21 20 22 27 21 20 16 15 12 15 18 22 23 22 23 20 23 26 24 25 24 22 24 21 23 31 27 28 26 24 22 22 19 25 23 23 18 15 20 18 22 22 19 18 17 24 30 28 25 23 19 18
16 15 15 15 15 16 16 15 15 15 15 16 15 15 15 15 13 12 13 13 14 14 14 13 9 13 21 22 21 28 16 19 18 21 22 21 20 19 19 22 21 20 18 18 16 15 19 14 20 23 26 25 19 23 26 25 29 24 27 25 23 24 27 29 28 22 21 21 19 20 25 24 24 23 24 21 19 19 23 21 21 19 30 29 26 25 23 18
15 15 15 14 15 16 16 15 16 16 16 16 16 16 15 14 13 12 13 13 14 15 14 13 11 21 22 25 26 27 18 14 18 19 21 20 20 19 19 16 13 19 14 16 17 14 12 18 18 19 21 18 30 28 29 26 25 26 25 28 22 19 25 21 21 19 21 26 21 20 25 24 22 19 19 21 22 23 27 25 25 25 26 24 21 22 20 23
15 15 15 15 15 15 15 16 16 16 16 16 15 16 16 15 14 12 13 13 16 17 14 10 13 23 21 17 26 20 18 15 16 17 18 19 18 18 17 12 15 14 15 16 23 20 10 13 18 28 26 24 23 21 26 23 23 24 20 27 25 23 23 22 27 24 20 20 15 17 18 20 23 20 17 17 16 21 27 23 25 24 24 22 19 24 21 19
15 15 14 15 16 15 16 16 17 16 16 16 16 17 17 16 15 14 14 16 12 11 12 11 21 21 21 25 21 16 12 13 15 17 18 19 18 19 12 13 14 14 10 16 12 13 14 12 18 27 20 23 26 35 27 23 28 25 24 24 21 19 23 25 27 23 21 20 17 17 20 19 18 17 16 14 19 17 20 23 24 22 22 20 19 23 20 19
15 14 15 16 16 16 16 17 16 16 16 17 17 18 17 17 15 13 14 14 18 13 11 10 23 17 20 26 14 14 12 17 18 16 17 18 16 15 14 14 14 14 12 13 12 12 14 15 19 24 30 31 33 26 26 26 27 24 23 22 24 22 25 25 21 19 21 20 16 20 23 21 19 18 16 13 16 18 18 21 21 24 24 21 21 20 20 19
15 14 15 16 16 16 17 17 16 15 15 16 16 15 13 14 13 13 13 15 11 11 19 18 22 23 22 28 20 16 17 19 18 17 17 16 18 18 16 16 15 14 14 13 13 18 17 19 23 33 34 27 25 20 22 29 21 24 21 18 25 24 24 27 18 15 19 22 19 16 22 23 20 18 15 11 12 18 19 19 22 22 23 24 22 21 19 19
15 15 15 16 16 16 17 16 16 15 13 15 16 15 12 9 12 13 13 11 18 19 21 18 18 26 14 23 22 19 21 21 15 15 15 14 16 23 23 20 21 22 20 19 17 18 20 22 26 26 26 26 23 24 21 23 21 18 25 22 19 21 22 22 22 19 19 18 20 23 25 21 21 21 18 14 14 20 19 18 19 21 18 24 21 21 17 16
15 16 16 17 17 16 17 16 16 15 13 14 13 8 13 10 10 12 13 16 21 21 24 27 23 21 29 23 27 24 17 17 18 15 13 13 16 18 17 23 23 27 25 25 19 22 22 24 27 23 24 22 21 26 20 19 24 20 24 19 23 27 23 22 22 23 25 21 23 23 25 23 22 22 20 16 14 16 17 20 18 19 16 22 20 19 17 17
16 16 17 17 17 17 17 16 16 14 13 15 14 16 15 10 17 20 19 19 20 17 18 25 25 21 23 26 20 21 16 18 16 17 17 17 19 15 15 18 23 27 23 24 21 18 29 28 30 21 21 24 21 26 23 22 26 27 24 27 22 22 22 21 23 23 23 26 24 24 26 25 23 23 22 18 15 17 16 16 20 17 15 18 19 18 18 19
16 17 18 18 18 17 16 16 15 14 13 12 17 17 17 15 17 20 21 22 28 29 21 24 26 20 19 17 21 21 19 18 18 17 17 16 21 19 17 21 21 24 25 23 19 24 26 21 21 27 32 26 25 19 25 25 29 37 30 26 22 24 22 24 23 26 33 33 24 25 24 23 23 21 21 19 17 18 18 15 17 19 15 14 16 16 18 17
16 17 18 18 18 17 16 15 14 12 9 17 19 18 18 29 30 31 28 26 28 25 21 22 24 17 20 19 21 23 25 21 21 18 17 20 18 21 21 21 22 22 22 24 16 23 31 26 24 37 29 30 23 13 20 25 26 23 22 28 22 18 19 21 25 32 35 22 29 22 24 23 23 21 20 20 19 18 16 16 17 17 15 14 16 17 16 18
16 17 18 19 18 17 15 14 13 11 10 18 18 20 21 20 15 18 28 35 27 26 19 24 18 16 12 11 13 17 18 21 19 19 16 19 22 24 22 19 26 27 30 23 24 21 19 22 23 40 26 23 20 13 15 20 25 23 23 26 23 22 26 23 28 30 25 20 29 26 23 25 22 22 23 20 19 18 18 16 16 16 16 15 15 15 16 16
16 17 18 18 18 16 14 14 11 11 16 17 23 26 26 15 14 14 14 24 27 26 23 19 19 18 19 12 17 15 18 16 21 20 23 20 19 22 28 29 21 27 34 22 22 20 23 22 27 31 34 23 14 12 12 19 20 23 25 21 23 26 22 20 23 26 30 26 23 20 21 23 21 20 21 19 20 19 18 18 14 13 16 15 15 15 15 15
16 17 18 17 18 17 17 13 10 11 21 25 25 24 13 14 14 12 18 21 21 21 25 21 18 18 21 22 25 20 18 13 13 17 17 20 21 16 19 18 15 25 24 28 17 23 25 20 16 22 28 22 16 14 12 16 20 24 30 26 25 23 25 19 22 28 31 28 27 25 21 21 18 21 22 19 19 17 18 17 16 16 13 15 14 15 16 15
16 16 17 17 17 17 12 13 11 20 20 23 27 20 14 14 12 15 18 19 32 27 14 16 18 14 19 17 19 25 15 13 14 12 17 18 12 19 14 17 22 14 17 15 15 21 19 16 11 13 14 15 13 14 16 25 15 24 30 27 20 19 17 23 23 22 24 24 28 24 21 21 21 20 22 22 21 20 21 20 19 18 17 17 17 17 15 16
16 16 17 16 16 14 12 11 20 26 23 19 17 15 15 15 16 13 17 21 20 26 19 23 19 21 19 23 18 19 12 20 13 17 13 15 14 22 21 21 23 17 11 12 17 22 18 15 13 16 14 14 14 17 17 18 21 20 21 19 19 18 19 22 22 25 20 19 23 24 17 17 23 23 21 22 21 21 22 21 20 20 19 19 19 18 18 18
16 16 15 15 13 13 13 11 23 27 19 18 14 15 15 11 11 15 23 18 17 24 24 28 24 25 19 16 23 16 22 21 17 14 19 14 21 16 23 17 19 14 12 25 25 20 14 13 12 12 13 14 14 18 16 14 22 24 17 14 17 18 19 18 18 23 19 20 22 22 23 18 20 26 25 25 22 23 23 23 22 22 20 21 19 18 17 21
17 16 16 13 13 11 16 26 27 23 20 16 15 15 12 13 13 20 26 17 23 21 20 27 17 20 18 19 20 25 24 16 22 20 12 18 18 20 22 15 16 15 13 20 15 16 15 11 13 13 11 21 17 18 11 14 19 22 17 17 17 17 15 14 18 30 24 18 20 24 25 24 23 21 25 25 24 23 24 25 25 24 22 20 18 19 20 23
17 17 16 15 14 19 20 19 22 21 17 16 16 14 14 12 15 19 17 17 23 32 22 17 19 20 19 16 23 17 16 18 18 19 15 13 13 24 17 14 14 15 13 20 19 15 15 17 13 16 17 20 14 12 15 12 16 16 17 15 14 13 14 14 22 33 28 23 16 21 23 20 19 22 25 25 22 25 26 26 25 24 23 22 21 19 21 22
18 17 16 16 18 15 15 16 22 22 16 17 16 11 12 13 17 18 17 13 20 20 20 21 21 22 21 22 21 18 18 20 15 18 15 17 20 18 16 15 13 14 19 19 20 18 16 12 15 16 18 17 15 14 11 10 17 20 18 19 19 16 15 15 22 27 24 20 20 26 24 20 13 19 21 23 27 25 23 24 25 25 25 24 21 21 24 22
18 17 15 15 15 19 19 21 16 16 17 17 16 14 13 18 22 18 11 22 25 20 17 19 20 17 23 20 20 18 16 16 19 15 21 16 18 16 18 20 12 16 16 19 18 16 15 15 14 16 13 18 17 21 15 17 24 21 21 17 17 15 14 15 16 25 16 13 16 28 26 22 16 18 22 24 20 21 22 23 27 26 26 25 23 24 24 22
18 18 15 17 19 23 19 19 22 18 19 18 16 15 18 17 26 21 15 21 25 21 21 19 15 22 19 15 12 22 23 16 15 18 17 18 17 20 20 16 21 20 22 17 18 16 18 17 17 17 11 18 18 18 20 18 18 18 18 19 15 14 18 14 20 14 16 11 16 20 24 19 17 22 28 22 20 20 21 23 29 27 26 28 26 26 24 24
20 19 21 24 16 17 21 20 17 17 17 16 16 17 22 21 16 21 27 21 17 19 20 16 19 15 13 16 16 16 15 16 16 15 12 16 16 13 17 19 23 27 21 26 19 18 20 14 16 15 15 17 28 21 21 19 19 18 19 17 15 14 10 8 14 14 13 17 19 16 21 20 20 18 21 16 19 17 18 22 24 27 25 28 25 26 26 22
19 18 18 10 18 20 20 16 17 17 17 15 17 21 28 13 16 20 32 23 24 24 13 18 15 12 16 19 16 10 21 13 16 19 17 14 16 14 19 15 20 24 26 25 16 25 13 17 20 19 18 18 28 32 24 22 19 21 21 27 20 19 21 11 15 10 15 13 17 13 18 16 19 22 24 22 16 17 18 25 20 25 29 27 25 26 24 23
22 20 19 22 21 25 22 19 14 13 15 19 21 21 15 19 15 22 28 24 27 18 16 12 17 18 15 15 15 16 18 15 17 14 19 20 18 15 12 15 15 16 17 20 17 19 16 21 21 14 18 18 15 18 26 23 20 28 25 26 17 16 22 18 18 18 19 18 17 18 16 19 22 25 16 14 14 18 20 25 25 26 28 27 26 25 25 25
16 15 17 16 19 14 16 16 12 13 16 20 22 17 23 23 17 24 24 22 12 13 15 17 16 20 16 14 15 16 21 23 19 19 15 16 14 12 12 12 12 13 15 18 16 13 16 19 17 16 13 13 14 14 17 33 18 20 20 15 27 25 21 14 18 15 13 20 9 13 22 26 23 20 14 15 18 19 19 20 22 26 27 24 25 26 24 24
17 13 16 16 19 16 11 12 14 16 18 24 22 16 22 27 29 24 27 17 13 13 17 17 20 20 15 16 17 17 21 17 16 19 18 13 17 15 14 14 10 13 13 19 13 13 15 19 17 17 18 12 9 13 16 27 26 21 20 21 21 16 21 16 12 11 12 12 9 19 18 20 19 17 19 19 19 21 20 23 23 23 25 24 26 24 25 24
17 17 17 17 16 13 11 12 12 17 22 21 20 9 27 29 29 28 27 15 17 14 16 14 14 16 14 16 15 17 19 19 18 19 15 19 17 19 12 14 16 14 15 11 14 13 19 18 21 14 11 18 13 13 16 16 16 20 22 15 20 18 22 24 17 8 14 7 10 18 21 25 23 20 20 19 21 20 21 23 23 24 24 23 24 23 23 22
19 21 23 23 20 11 9 10 15 19 23 28 21 17 20 35 34 28 17 13 14 13 17 21 14 12 17 15 12 13 22 19 17 14 16 17 18 14 17 16 14 11 13 14 19 11 13 12 22 15 14 18 17 18 14 15 18 15 13 21 11 15 23 21 16 20 21 9 10 18 21 15 23 24 21 21 20 21 22 23 23 24 24 24 24 23 24 22
19 18 23 15 14 9 9 12 18 20 23 20 15 22 22 27 37 18 11 15 12 14 12 11 13 12 17 13 15 14 14 17 15 14 17 16 15 17 15 15 20 14 10 13 19 13 12 14 10 21 13 15 21 21 16 22 16 18 18 16 15 15 16 19 18 21 18 14 14 11 11 18 17 17 20 20 20 22 22 23 23 24 23 22 21 22 21 21
17 22 22 11 12 10 12 15 21 23 23 21 24 27 31 27 24 15 10 11 14 13 15 13 14 16 12 14 17 14 13 15 16 17 16 14 17 14 15 13 13 14 15 14 15 15 11 18 10 19 19 20 14 15 14 16 17 18 18 14 16 14 16 16 15 17 24 21 16 11 16 22 18 27 26 24 20 22 21 21 22 22 23 21 21 18 19 19
19 24 18 12 10 10 15 20 25 20 25 17 19 29 29 25 24 11 13 15 16 11 16 19 13 16 11 14 15 12 17 14 13 16 12 19 16 16 18 10 10 13 17 19 18 17 15 12 12 12 14 14 17 14 12 12 12 15 17 17 17 16 16 17 16 14 20 18 22 16 15 15 17 20 23 22 19 20 20 21 21 21 21 20 20 20 18 16
24 21 19 15 10 13 17 23 20 22 20 22 24 26 32 29 19 13 15 15 18 15 15 17 14 12 10 15 12 17 12 19 13 15 20 13 22 18 15 8 10 13 18 12 13 18 4 20 14 15 14 15 14 12 11 11 13 15 18 14 13 15 16 19 20 18 20 16 17 12 12 16 14 17 14 15 16 21 20 19 21 21 20 22 19 18 18 16
19 21 18 15 11 13 19 18 17 17 21 17 20 21 26 18 15 14 19 15 16 14 12 12 13 14 15 11 12 18 17 16 14 15 16 13 14 13 12 9 11 16 18 16 17 21 17 14 20 14 16 20 18 17 17 13 15 16 13 14 12 14 13 13 17 15 17 16 18 17 14 13 18 13 15 14 17 17 19 19 18 19 17 18 17 18 17 15
21 21 16 19 15 16 23 22 18 22 17 18 20 18 16 16 13 16 17 13 13 12 12 12 13 14 14 11 15 13 10 13 15 11 16 12 17 13 14 8 10 14 18 16 11 16 15 10 15 13 11 11 11 10 10 16 16 11 10 14 11 14 14 14 15 15 15 20 20 20 14 18 17 14 15 15 21 17 16 18 17 16 15 16 15 17 16 15
22 19 19 16 18 18 25 18 18 20 24 19 16 18 20 19 16 13 13 13 11 13 16 16 11 11 14 14 13 12 14 15 14 13 16 15 17 15 12 13 15 17 14 12 13 13 17 11 13 16 19 20 23 17 10 16 13 14 15 9 12 11 13 13 15 15 13 19 18 20 26 18 16 17 16 16 15 17 18 17 18 18 15 15 13 14 15 15
17 23 17 17 17 18 20 18 18 18 14 15 16 16 16 16 16 15 12 20 16 9 9 13 19 14 12 14 11 11 10 12 13 13 13 14 18 19 13 11 15 14 11 10 11 13 13 15 11 10 12 15 13 15 11 12 15 13 13 12 9 9 8 12 12 15 15 19 11 17 12 11 13 14 15 16 15 16 18 19 19 19 17 16 15 14 11 16
20 16 15 14 17 15 18 16 20 19 16 18 13 20 16 17 14 13 19 17 13 12 10 13 14 13 12 11 11 8 13 12 13 12 14 17 17 17 19 15 15 13 15 16 14 15 15 11 12 10 11 10 11 12 11 11 14 11 11 11 12 9 8 10 11 13 14 15 14 11 9 9 13 15 15 16 16 18 17 17 15 15 17 16 15 14 15 14
23 22 19 15 21 13 16 15 19 19 15 19 16 17 16 15 15 17 11 15 13 14 13 5 14 11 11 11 14 10 13 12 7 12 12 15 14 18 16 15 14 18 17 12 12 10 17 12 11 10 13 12 11 10 9 11 11 12 12 11 8 10 10 10 11 10 11 11 11 10 9 10 11 14 14 16 14 15 15 13 15 16 16 15 16 18 19 18
26 18 16 15 19 18 14 15 17 16 17 14 15 16 21 16 16 13 13 12 11 15 13 11 15 13 11 13 10 11 12 10 10 17 11 13 12 14 11 11 17 16 18 12 11 11 16 10 11 15 15 14 11 9 11 14 12 14 12 9 11 8 9 13 9 8 8 10 9 9 10 14 15 12 16 14 12 16 15 16 16 13 14 13 14 16 17 17
17 19 16 19 21 20 14 14 17 20 21 21 22 18 20 16 18 12 13 10 12 12 12 14 14 18 11 11 11 10 16 12 11 13 15 12 11 12 10 12 11 15 17 15 15 12 15 11 13 13 13 14 14 13 13 11 12 14 12 12 13 12 12 11 7 10 13 11 9 10 15 17 19 16 15 15 13 14 15 14 12 12 18 17 11 13 13 12
21 15 14 17 21 15 18 15 19 20 20 21 24 18 20 17 17 14 9 11 14 12 11 14 15 14 14 11 10 9 11 12 14 18 16 15 12 12 14 14 14 10 14 14 10 16 17 17 15 13 14 10 17 12 12 13 15 19 21 19 15 12 10 10 7 9 8 8 11 12 17 18 18 16 16 16 15 14 13 13 13 14 16 15 10 11 12 11
Wind_Speed
10 10 10 11 10 11 11 10 10 10 10 10 10 10 10 11 11 11 11 12 12 12 12 12 11 11 11 11 11 11 10 10 11 9 11 3 2 0 4 5 5 5 4 7 11 13 8 9 11 9 9 8 5 9 5 8 5 7 1 9 9 6 8 11 12 12 6 6 9 12 11 7 7 5 6 8 12 13 14 14 12 14 14 12 11 10 9 8
10 10 10 11 11 11 11 11 10 10 10 10 10 10 11 11 11 11 12 12 12 12 12 11 11 11 11 11 11 9 10 9 11 12 6 6 4 2 3 3 2 0 1 9 13 9 7 8 10 10 12 10 6 2 4 5 9 5 3 4 7 7 5 8 8 7 3 6 8 13 13 5 1 3 7 3 9 11 13 13 12 14 12 12 12 11 10 9
10 10 10 11 11 11 11 11 11 10 10 11 11 11 11 12 11 11 12 12 12 11 11 11 10 10 10 9 9 9 8 9 11 9 7 2 5 4 0 4 3 3 8 10 14 9 6 6 4 8 9 4 10 11 8 8 7 5 5 2 1 4 5 4 8 7 8 9 9 12 8 5 3 3 7 4 7 9 11 11 11 13 12 12 12 10 10 10
10 10 11 11 12 11 11 11 11 11 10 11 11 11 11 11 12 12 11 12 12 11 10 11 10 9 9 9 6 8 8 10 4 9 8 9 7 3 4 4 8 10 10 15 15 19 1 7 2 6 3 6 10 5 8 9 6 6 4 2 1 4 4 11 7 5 9 9 10 12 9 10 9 8 1 5 9 7 6 3 10 13 12 12 12 11 10 11
10 11 11 12 11 12 11 11 11 11 11 11 11 11 11 11 11 12 12 11 11 10 10 9 10 9 8 8 9 6 5 5 8 8 11 11 9 7 5 7 12 11 14 16 18 10 4 4 8 5 5 7 4 5 7 7 7 4 6 4 3 3 3 7 3 4 8 9 13 10 10 4 4 7 6 5 7 5 4 6 7 9 10 12 12 11 10 11
11 12 12 12 12 11 11 11 11 11 11 11 11 11 11 11 12 12 12 11 10 10 9 8 8 8 8 5 8 7 6 5 4 7 12 11 9 7 7 10 14 10 13 16 6 9 4 7 7 2 4 4 3 5 7 8 10 6 9 4 5 1 4 3 4 7 6 9 11 11 7 4 5 7 8 12 8 5 5 6 7 8 10 10 11 10 11 11
11 12 12 12 12 11 11 11 11 11 12 11 12 12 11 11 12 11 11 10 10 9 8 7 7 8 8 5 7 7 8 10 5 10 14 11 10 9 9 11 10 10 10 15 4 2 3 6 7 7 3 4 5 6 8 9 9 7 2 6 4 3 7 1 7 6 7 9 13 13 10 7 8 10 6 12 8 6 7 6 1 7 9 10 11 11 11 11
12 12 12 12 12 12 12 11 11 12 12 12 11 11 11 11 11 11 11 10 9 8 8 7 6 7 7 8 6 7 8 9 9 13 11 10 9 9 7 9 11 11 13 15 6 2 4 7 4 11 6 3 5 8 6 6 7 6 7 7 6 4 8 7 6 9 9 13 12 14 10 5 6 8 7 9 7 5 4 4 5 6 8 9 11 11 10 10
12 13 13 12 12 12 12 12 12 12 12 12 12 12 11 12 11 11 10 9 8 8 7 6 6 5 2 6 6 9 9 8 11 14 12 10 10 10 9 7 13 13 17 15 4 4 6 6 6 9 4 9 6 7 7 5 1 3 7 4 6 6 7 8 9 7 9 8 9 13 13 8 11 11 12 6 4 5 5 5 6 6 8 9 9 10 9 10
13 13 13 12 12 12 12 12 12 12 12 12 12 12 12 12 11 10 9 8 7 7 7 6 5 3 5 5 6 4 9 12 11 12 13 10 10 9 9 12 11 12 2 8 3 6 5 5 6 7 12 7 3 6 5 3 3 3 9 7 10 6 6 6 9 8 8 8 8 14 15 10 6 1 3 4 2 2 6 6 2 3 8 9 8 8 9 9
13 12 12 12 11 11 11 12 12 12 12 13 12 12 12 12 11 10 8 6 6 7 7 6 4 5 6 6 6 2 7 11 9 9 12 11 9 10 11 13 14 10 11 10 7 4 7 6 11 2 10 4 7 4 3 8 9 4 8 8 11 9 8 6 8 10 8 8 8 11 14 8 7 9 5 5 4 2 7 5 2 3 8 9 9 9 9 7
12 12 12 12 11 11 11 12 12 12 13 13 13 13 13 12 11 9 7 5 5 7 7 7 7 5 7 8 8 1 10 7 9 9 9 10 10 10 12 9 3 10 6 8 8 8 5 9 10 8 7 5 5 3 6 9 9 11 6 4 7 10 8 5 5 6 6 9 10 11 14 11 8 11 9 8 5 4 6 6 1 0 6 9 8 7 6 5
12 12 12 11 11 11 11 12 12 13 13 13 13 13 13 13 11 9 6 5 8 8 7 7 5 6 6 7 3 9 9 7 8 10 9 9 10 9 9 5 8 5 7 8 12 12 3 1 9 15 10 6 8 5 6 3 9 14 5 4 6 8 7 3 5 6 6 5 1 5 4 7 11 11 10 11 5 1 5 2 3 4 7 7 6 6 4 2
12 12 12 11 11 11 12 13 13 13 13 14 13 14 14 14 12 10 7 7 3 3 7 6 7 7 5 4 7 6 3 5 6 8 8 10 10 10 6 5 5 6 3 8 6 6 2 2 7 12 7 7 6 7 7 6 7 5 3 3 1 2 3 5 6 8 7 5 6 5 5 7 10 8 8 9 13 12 9 8 9 8 9 8 5 6 4 2
12 12 11 11 11 12 12 13 13 13 13 14 14 15 14 14 12 10 6 5 8 7 3 4 7 5 4 2 6 5 5 6 7 7 8 9 8 8 7 3 5 4 3 3 1 3 0 2 11 6 8 8 10 5 6 3 1 3 2 2 0 1 4 7 5 6 4 4 6 4 8 7 9 11 10 9 10 9 10 13 11 9 10 9 7 8 5 5
12 12 12 12 11 12 13 13 13 13 13 13 14 13 11 11 10 9 6 6 3 1 7 5 9 10 8 7 6 8 5 9 9 9 8 8 8 7 8 1 3 1 2 3 4 1 3 2 6 7 8 7 6 4 3 2 1 4 2 4 1 5 6 1 6 6 5 8 6 1 7 9 9 10 7 5 7 8 10 12 13 11 11 9 8 8 7 7
12 12 12 12 12 13 13 13 13 13 11 12 13 12 10 7 6 6 6 4 6 7 8 5 6 10 3 5 6 9 8 11 7 8 8 5 8 8 3 6 3 4 3 1 4 6 7 2 4 4 5 2 5 8 5 0 4 4 2 1 3 5 10 4 6 11 8 8 6 6 7 7 10 10 7 5 8 13 10 10 13 10 8 13 10 9 8 8
12 12 12 12 12 13 13 13 13 12 11 11 10 7 5 3 4 7 8 6 6 7 10 11 9 9 10 10 12 11 8 7 8 5 4 4 3 5 6 5 4 4 5 6 6 7 5 3 2 5 4 5 4 3 5 3 5 7 4 5 8 13 8 10 7 7 7 6 9 9 8 12 11 10 8 7 6 11 10 9 9 11 10 12 9 9 10 8
13 13 13 12 13 13 13 13 12 12 11 13 11 12 12 8 5 5 6 5 4 4 5 7 7 6 6 13 12 10 8 8 4 2 7 9 6 6 6 1 7 6 6 3 6 4 4 1 2 4 5 5 6 5 2 5 10 9 6 3 5 7 8 6 6 5 5 10 9 10 10 12 12 11 10 10 9 10 9 8 7 9 7 11 10 8 8 9
13 13 13 13 13 13 13 12 12 11 11 8 5 4 3 3 3 4 7 10 13 13 12 12 12 11 8 5 9 8 10 5 7 8 2 2 3 6 3 5 7 5 11 1 1 8 3 1 3 5 4 8 10 3 2 7 18 12 10 4 3 8 6 9 6 4 4 6 8 9 11 12 11 11 11 10 10 10 10 9 8 8 7 7 8 9 10 10
13 13 13 14 14 13 12 12 11 9 8 6 6 5 5 10 12 10 11 11 14 15 12 4 12 9 10 4 10 8 10 9 11 8 6 8 9 4 3 6 4 2 3 2 6 9 7 6 7 11 8 12 11 6 8 6 8 13 9 5 9 9 7 7 6 7 5 3 8 10 11 10 11 11 10 10 10 10 10 9 11 8 7 5 10 9 10 9
13 14 14 15 14 13 12 11 10 8 8 6 5 5 7 4 4 4 11 11 16 17 12 14 11 4 3 3 5 9 7 7 4 7 4 3 7 4 8 6 6 5 0 5 10 3 4 6 4 6 7 11 13 5 4 8 7 5 4 6 9 6 8 4 7 6 5 5 5 8 9 9 10 10 9 10 9 8 6 7 9 9 10 8 8 9 9 9
13 14 15 15 14 13 11 11 8 5 4 5 6 10 10 3 3 2 5 7 11 15 13 11 6 9 10 3 3 4 7 8 7 4 8 4 4 7 5 7 8 8 7 5 10 9 8 2 0 6 6 10 5 1 5 7 7 4 4 4 3 6 4 1 6 7 5 4 8 7 5 8 9 9 8 9 8 7 6 5 6 6 8 8 8 7 8 9
13 13 14 14 14 14 14 10 7 3 7 13 11 13 1 4 2 6 6 3 5 10 12 9 9 6 6 9 9 9 8 3 4 9 7 5 8 3 7 10 6 13 10 14 10 4 5 8 9 14 18 14 8 4 4 5 2 4 2 6 4 9 5 7 9 9 6 7 8 9 8 4 2 9 7 8 6 10 8 7 7 7 7 8 8 8 8 8
13 13 14 14 14 14 10 8 3 8 10 11 13 12 3 4 3 8 4 2 4 9 8 7 8 6 8 8 11 10 6 4 4 1 6 5 6 6 5 5 3 5 4 2 6 7 9 3 4 5 4 5 5 3 3 6 2 1 7 5 4 10 10 8 10 11 3 4 9 10 7 5 10 10 10 8 7 8 9 9 9 8 9 9 8 9 7 8
12 13 13 12 13 11 9 4 5 7 5 8 1 5 3 4 7 4 5 1 4 6 5 9 6 6 3 8 6 8 3 7 4 3 3 4 7 8 4 4 1 5 1 3 4 4 3 5 5 7 3 7 4 4 5 11 5 2 4 8 7 4 6 6 11 10 3 2 6 10 2 4 6 7 7 9 9 9 9 9 10 8 7 8 8 9 7 8
13 13 12 12 10 11 5 2 10 14 6 3 4 2 4 4 3 5 3 1 4 6 9 8 9 4 5 7 8 9 8 7 7 4 9 2 10 7 8 2 7 4 1 6 2 4 6 5 2 4 4 4 5 4 3 2 6 5 6 6 5 4 5 5 8 8 5 11 8 7 4 3 4 4 9 8 8 8 9 10 10 9 9 8 7 7 9 7
13 13 13 11 10 6 4 8 12 10 4 6 4 3 1 6 3 8 6 1 1 7 7 9 3 4 6 9 11 9 11 7 8 9 6 10 10 9 8 6 7 3 2 1 5 4 7 3 4 3 1 9 5 6 4 1 3 3 3 4 4 5 1 6 3 2 1 1 4 4 9 5 2 3 2 8 8 9 10 10 10 9 9 8 7 8 7 9
13 13 13 11 10 11 8 5 8 10 7 6 7 5 5 3 3 4 0 3 4 5 5 6 1 8 7 9 9 9 6 8 8 9 5 1 6 11 6 3 4 4 5 2 5 4 4 6 5 6 7 1 4 3 5 4 5 7 6 4 1 2 4 2 4 3 1 1 1 6 7 3 1 2 4 10 10 11 11 10 10 11 10 10 9 9 7 7
14 13 13 12 11 5 4 5 8 12 8 8 8 4 2 5 5 6 2 3 4 6 7 6 6 10 10 10 8 8 7 8 6 8 5 6 11 7 2 8 4 6 3 1 3 3 5 4 3 5 7 6 3 5 4 2 3 4 3 3 3 4 3 2 5 3 3 0 5 11 9 5 1 3 4 5 8 10 10 10 10 12 11 10 11 11 10 8
15 14 11 10 4 6 8 7 3 4 9 8 8 6 3 3 2 1 3 1 6 1 6 4 7 4 11 10 7 9 9 7 7 4 8 2 7 7 1 7 2 2 3 8 2 3 7 7 4 5 4 4 5 4 4 0 1 7 2 3 0 2 1 4 3 1 1 2 2 9 9 12 2 2 7 10 10 11 11 14 11 13 14 12 11 10 13 12
15 15 12 6 6 8 6 6 12 8 9 10 9 3 3 1 4 4 2 1 9 7 8 5 5 6 8 4 4 7 6 5 6 4 6 3 5 5 7 1 4 4 5 5 3 3 5 5 2 6 3 11 6 5 6 4 4 2 7 6 3 0 4 0 2 2 5 0 4 7 8 2 3 2 7 14 12 11 13 12 14 15 15 14 13 12 10 8
16 15 17 13 9 6 10 9 8 8 9 8 5 3 3 5 1 6 8 6 4 3 4 5 6 6 6 7 7 8 7 5 6 5 4 4 6 6 10 5 9 5 2 5 7 6 3 4 6 5 5 7 4 6 6 4 5 5 6 2 2 2 2 1 3 4 4 4 3 6 13 3 1 2 1 6 11 6 9 12 13 13 15 15 14 12 9 9
15 14 8 2 6 8 9 9 7 8 9 6 1 4 1 0 2 7 11 2 6 11 2 7 6 5 8 6 5 3 6 1 3 5 5 2 4 1 2 6 13 12 7 6 5 1 1 1 4 6 2 3 5 3 5 2 6 6 7 3 1 1 2 3 2 1 2 3 6 3 4 3 4 2 6 11 2 10 10 14 10 11 14 14 13 12 11 11
18 13 9 11 9 12 13 10 5 5 6 5 5 1 1 2 2 2 6 7 10 8 5 1 6 4 5 6 7 6 7 4 7 4 6 4 3 4 3 3 5 4 2 4 5 4 3 5 6 5 5 7 2 6 6 6 2 3 2 4 2 2 6 4 2 1 3 3 3 3 3 6 1 4 2 4 6 6 13 15 15 15 14 13 11 10 11 10
12 4 6 5 7 7 8 6 5 3 5 4 3 1 3 2 3 3 5 12 0 2 3 5 6 4 2 4 6 8 12 8 7 5 4 6 6 3 5 2 2 3 4 3 4 3 6 5 3 6 1 3 7 7 5 5 2 2 1 1 4 5 3 3 1 5 4 4 1 0 6 7 3 4 3 2 4 7 8 11 10 17 14 14 11 10 11 10
5 5 5 7 9 8 4 3 3 4 5 6 5 3 1 4 9 11 9 8 4 3 3 5 5 6 6 1 2 3 8 5 5 3 3 3 3 6 3 3 1 1 4 3 3 2 5 5 3 2 7 3 2 3 5 4 2 4 3 1 6 4 5 3 1 1 2 3 1 7 5 6 2 1 7 10 4 7 8 9 10 14 16 14 13 11 10 9
7 7 8 8 7 4 1 3 4 4 6 7 5 7 8 3 9 10 15 8 5 2 4 1 4 5 4 4 3 5 8 7 6 4 4 4 3 10 4 3 9 4 7 3 4 4 3 5 5 1 4 9 4 4 7 8 9 6 2 2 5 0 2 3 1 1 2 2 1 6 9 4 4 3 5 6 5 6 8 10 10 10 12 10 15 14 14 14
6 8 8 9 10 4 3 5 4 5 7 7 7 4 5 6 17 15 11 5 5 3 4 11 2 2 6 2 3 5 6 3 5 4 4 4 1 0 7 6 4 2 4 5 4 1 2 3 4 4 5 8 5 3 1 3 7 6 4 6 4 3 4 3 2 3 3 3 1 4 3 2 3 2 6 4 5 7 7 9 11 11 11 9 9 12 11 9
6 6 8 8 7 3 2 2 5 6 5 7 2 4 1 2 18 13 3 7 3 2 4 4 2 2 3 5 2 3 2 7 4 4 5 4 5 8 4 7 8 5 4 2 8 4 1 2 2 5 2 2 4 3 5 8 5 6 5 3 5 2 4 3 2 3 5 4 4 2 2 3 3 1 8 11 4 5 6 7 7 7 8 9 8 9 8 9
7 6 3 4 4 3 1 6 6 7 8 1 3 4 7 2 10 4 3 2 2 1 3 4 1 3 3 3 3 5 3 4 6 4 3 5 5 3 6 4 5 4 5 1 6 6 1 3 2 1 4 3 2 4 7 7 9 6 5 6 6 3 4 1 2 3 5 2 2 2 1 3 5 2 7 8 7 4 3 6 7 4 9 8 7 7 7 7
7 8 3 4 5 3 4 6 6 5 7 3 2 4 8 10 12 3 5 7 7 2 8 5 2 5 1 3 5 4 4 3 3 4 2 5 3 0 7 2 2 7 4 3 2 6 2 3 3 2 4 4 9 7 6 5 4 7 5 7 6 3 5 4 3 2 5 1 4 3 4 1 1 6 10 9 10 5 5 5 8 7 8 5 4 8 6 6
7 8 8 8 5 6 6 7 6 7 8 5 3 13 16 13 10 1 6 6 7 2 3 4 6 3 2 3 4 7 3 4 1 2 8 3 11 8 4 3 4 4 7 3 6 5 1 4 3 6 2 4 1 4 4 4 4 5 6 6 2 4 8 6 4 5 4 6 4 1 1 2 3 0 7 6 7 2 1 10 6 10 4 10 7 10 8 6
7 8 5 5 5 5 5 4 4 5 7 5 8 2 13 8 7 3 5 6 2 1 0 2 2 5 6 4 4 7 8 4 6 5 4 4 5 5 5 2 3 3 6 4 3 5 4 3 3 5 4 4 3 3 3 2 3 3 4 3 4 5 4 4 5 2 3 6 9 6 1 2 4 4 6 6 6 3 7 8 7 10 6 11 8 8 7 7
7 7 5 6 5 5 7 7 5 5 5 10 8 9 6 6 5 8 4 5 5 2 1 3 6 5 5 1 6 6 3 3 4 5 5 3 6 1 8 2 1 6 10 8 5 3 3 2 4 1 4 4 2 2 1 3 5 2 4 7 5 5 8 3 1 3 3 4 7 3 3 1 6 4 3 5 12 8 6 6 5 8 7 7 8 7 7 8
7 5 5 5 6 4 7 7 7 7 2 5 6 8 11 8 3 5 6 5 4 6 5 6 2 3 5 4 4 2 4 8 3 2 4 5 5 5 2 6 8 7 8 9 4 4 4 3 4 2 7 5 10 8 2 3 5 4 3 4 5 5 5 4 4 3 3 4 3 3 5 6 5 7 4 7 7 6 7 6 6 7 6 6 6 7 7 6
5 8 2 4 4 5 6 7 8 5 3 3 3 5 9 5 7 3 5 7 8 2 2 4 9 2 4 7 3 4 4 3 6 4 4 2 9 7 2 4 7 8 4 1 2 2 4 3 2 2 2 8 4 3 3 4 8 6 7 3 4 4 3 4 3 4 5 6 2 2 5 4 3 2 5 4 6 8 6 6 6 6 7 5 6 7 8 7
6 5 5 4 3 2 5 6 9 7 8 3 3 7 7 9 4 2 6 6 5 4 1 5 4 6 3 2 1 1 4 1 4 2 7 8 6 6 6 1 6 7 4 5 6 3 5 3 3 1 4 2 4 5 4 5 7 4 3 2 3 1 2 3 4 7 6 3 1 3 3 4 6 5 3 5 6 5 6 6 5 7 6 5 7 7 7 7
8 6 7 5 6 5 5 8 9 8 6 6 5 9 8 8 5 8 3 5 3 5 3 1 3 5 1 4 3 3 1 3 1 4 5 2 5 4 4 3 7 8 5 4 3 3 3 1 2 3 3 1 2 2 3 6 2 5 3 3 1 2 3 4 5 6 6 5 5 5 1 5 2 7 5 6 5 5 5 6 6 8 7 6 6 5 6 8
5 4 5 2 5 5 4 8 8 8 7 1 3 6 9 6 8 5 3 1 2 6 5 2 5 6 4 6 2 2 5 3 1 2 2 8 5 6 3 3 6 6 7 5 2 3 2 1 2 7 6 5 5 1 3 6 4 6 5 1 3 1 2 7 2 2 2 3 2 1 1 4 6 4 7 5 4 6 7 5 6 6 8 8 7 8 9 9
5 5 4 7 5 6 6 4 7 6 3 4 6 6 10 9 8 1 6 2 4 4 3 5 4 11 4 2 6 0 7 5 3 4 4 5 0 2 2 3 3 6 8 6 4 4 1 2 2 4 2 3 6 2 3 4 6 6 6 4 4 6 4 2 1 5 5 1 2 0 4 5 6 7 6 5 4 7 6 5 5 4 6 8 6 3 2 3
6 7 6 6 6 4 7 5 7 6 5 7 8 9 7 8 9 5 3 1 6 6 4 5 6 5 7 1 4 2 4 5 6 10 5 6 2 1 3 4 3 4 5 3 5 5 5 4 3 1 3 3 8 3 5 4 4 6 7 7 5 4 2 4 2 4 2 1 3 1 7 5 8 7 6 5 3 6 7 4 6 4 9 7 5 0 2 3
Wind_Direction
285 284 285 286 288 285 283 285 287 286 287 290 289 287 285 285 285 283 281 280 278 279 281 284 288 290 291 296 299 307 327 293 295 248 220 259 134 92 102 114 163 199 203 235 231 236 186 203 207 185 199 233 173 253 160 203 269 257 14 9 3 348 16 354 12 22 67 71 60 50 37 59 65 38 62 96 90 96 99 87 88 81 80 95 110 117 128 133
284 286 285 288 287 285 285 286 288 290 291 291 293 291 290 288 287 285 283 282 281 280 282 287 288 290 296 297 301 317 304 288 270 263 230 123 79 46 54 142 194 70 328 265 259 190 186 189 200 194 211 212 204 27 2 30 4 336 329 30 328 27 12 341 54 101 103 75 75 79 78 49 170 19 295 123 98 107 103 97 101 98 104 112 118 127 129 137
285 286 288 287 286 286 286 288 290 292 294 295 295 296 293 291 288 287 282 281 280 282 284 286 293 293 291 301 305 296 293 279 260 248 131 135 127 159 222 243 237 200 219 245 265 216 186 162 145 219 228 205 44 14 333 27 343 40 300 262 82 48 3 2 47 66 103 100 98 92 84 97 60 53 335 50 83 102 111 125 120 113 117 115 112 113 110 105
286 288 288 287 287 287 289 290 293 296 297 298 297 296 294 291 287 284 282 279 280 281 284 286 289 296 298 296 295 294 274 289 251 99 130 150 152 163 207 264 245 235 243 253 264 276 72 210 82 14 46 45 33 359 0 8 330 21 309 358 185 121 45 43 45 50 109 113 98 86 85 77 55 58 296 145 93 48 41 71 118 119 119 115 113 110 108 102
291 289 287 287 287 290 290 293 297 299 301 300 297 295 294 290 288 282 280 277 277 280 282 286 288 293 295 299 293 276 296 258 75 109 129 149 146 188 232 233 248 250 249 260 252 149 194 131 74 84 18 52 42 64 16 25 35 350 54 69 91 98 106 87 159 137 106 103 96 104 90 68 81 77 33 115 98 92 24 3 62 110 111 111 106 99 100 97
292 290 289 290 290 293 296 299 302 304 303 302 299 297 294 290 285 284 280 278 276 278 281 286 290 285 293 289 280 259 271 76 133 110 147 157 157 183 215 243 248 260 278 287 263 180 215 54 43 95 172 58 52 46 54 42 38 25 40 14 1 282 50 125 96 120 120 109 99 100 106 104 88 88 71 90 93 146 149 13 30 62 90 95 102 105 98 91
290 292 292 292 294 297 302 305 308 306 306 302 300 298 293 289 285 281 278 276 278 280 285 285 288 290 289 288 255 269 259 89 135 127 138 161 175 170 219 244 255 265 263 271 257 35 348 146 191 91 59 136 62 54 53 56 52 106 303 356 311 11 88 237 119 106 112 95 88 99 113 130 128 85 81 87 73 66 57 124 139 79 81 90 91 88 84 84
289 291 294 294 298 303 307 311 312 310 306 305 301 297 292 286 281 280 278 276 279 282 282 281 281 289 299 272 248 238 236 102 112 143 149 159 165 202 198 243 254 257 260 256 171 308 280 354 6 50 58 75 58 57 54 74 55 93 124 246 315 12 119 130 115 105 94 89 98 119 116 126 99 105 97 66 56 45 76 64 57 67 89 92 88 89 87 85
292 293 295 299 304 309 312 314 312 310 307 304 301 296 288 283 278 276 276 278 279 277 269 264 260 278 336 295 264 280 99 122 137 145 145 168 189 191 209 231 226 232 238 232 215 291 287 37 59 94 84 79 59 67 66 32 63 65 99 155 120 181 116 110 101 87 81 100 120 103 101 104 106 89 60 52 44 60 63 46 77 100 101 87 82 80 81 83
294 295 298 305 309 313 314 313 312 308 307 303 298 291 286 280 277 273 273 278 275 265 254 244 246 243 242 247 253 242 103 114 138 150 167 180 187 195 207 248 253 254 316 29 11 308 358 42 66 70 75 77 50 68 99 24 66 28 57 112 153 124 114 94 95 95 98 111 150 119 132 142 185 204 84 343 356 119 86 77 33 85 93 92 90 85 75 73
297 300 304 308 312 314 315 313 310 307 305 302 296 289 283 280 273 268 270 271 264 247 236 230 212 216 231 239 301 143 149 144 144 165 166 180 193 199 217 224 234 256 291 112 290 343 13 314 29 191 115 116 98 79 41 42 53 48 59 142 105 106 95 121 99 107 127 108 142 114 116 144 124 100 137 172 199 175 112 83 71 342 116 107 94 79 71 71
301 304 307 310 313 315 315 311 309 308 305 301 294 288 282 276 272 268 267 265 244 234 231 223 206 237 259 270 260 139 184 151 157 156 176 180 198 220 233 236 233 283 285 291 232 170 42 2 302 33 64 73 82 162 69 65 53 45 10 68 112 115 106 128 117 131 129 120 137 129 113 109 106 108 134 161 174 168 125 119 123 70 87 83 76 78 67 52
304 306 310 311 314 317 314 312 310 308 305 299 293 287 280 273 271 269 266 263 230 231 221 229 224 246 278 253 167 131 192 149 166 169 168 191 209 218 237 264 278 270 288 299 339 40 57 161 41 75 71 74 58 26 78 69 100 81 357 326 159 106 97 84 132 140 125 130 201 338 128 99 100 109 134 126 123 119 98 125 187 158 118 96 101 90 78 24
307 308 311 315 317 318 316 312 310 307 304 298 293 287 278 273 266 264 256 241 260 221 215 205 238 253 258 263 143 170 316 147 185 180 194 183 222 218 203 239 259 262 229 289 356 9 196 184 80 79 58 59 92 132 102 51 71 95 105 9 324 113 90 163 156 151 135 164 228 269 137 114 119 146 132 137 144 143 168 172 207 139 120 121 119 93 80 35
308 312 315 318 319 317 315 313 309 307 303 298 294 289 281 270 266 264 261 252 227 234 217 182 230 246 211 220 104 118 360 298 192 199 192 193 221 203 202 166 235 241 275 237 273 258 100 283 82 82 79 85 106 100 76 59 63 115 72 164 146 93 108 172 208 164 160 173 228 202 102 127 128 130 143 159 146 151 145 155 177 140 124 124 118 114 122 109
313 317 320 320 320 317 314 313 311 306 301 299 294 294 282 268 267 266 265 268 349 153 197 214 214 224 305 218 147 105 223 208 203 187 182 227 208 229 96 313 67 287 16 169 297 214 236 84 72 99 113 118 115 93 91 114 225 157 157 76 156 147 134 62 230 230 188 135 140 323 116 125 136 132 141 152 148 171 157 163 137 129 136 126 117 140 130 124
319 319 322 321 321 317 314 312 310 307 305 300 305 288 262 263 273 285 283 269 242 206 206 240 168 197 260 53 142 179 189 221 110 201 146 239 298 48 131 178 164 144 200 122 182 212 86 180 122 195 155 251 156 114 45 61 235 91 78 24 45 119 156 172 226 203 174 166 145 165 130 119 131 146 141 172 169 157 135 128 124 140 160 129 151 125 138 140
320 322 320 322 318 317 314 311 310 309 308 301 296 324 304 349 270 289 237 214 235 211 226 246 273 232 237 226 195 206 187 130 219 129 203 192 168 190 190 159 137 141 173 163 141 209 136 130 335 22 294 218 107 222 236 358 76 132 245 181 175 192 185 142 163 154 183 166 135 136 118 131 140 139 150 165 174 136 131 138 133 126 125 122 128 142 132 116
324 321 321 321 319 316 315 311 311 313 312 302 287 277 264 253 246 248 268 185 194 185 213 192 200 192 209 183 215 150 208 130 194 161 162 205 182 202 108 269 200 124 43 104 278 135 138 132 356 243 256 246 204 221 298 21 122 113 196 203 154 129 135 147 125 135 174 154 144 149 141 145 150 152 152 161 147 128 137 142 126 121 111 114 134 138 124 121
323 322 323 321 320 315 315 314 313 315 327 305 213 220 199 201 178 194 217 229 224 190 219 171 193 249 132 167 166 112 81 142 198 215 151 107 246 182 146 320 61 358 164 230 312 130 217 277 242 258 251 260 257 157 356 85 115 146 176 208 85 99 83 119 135 157 201 160 136 147 145 147 148 153 156 152 145 144 151 151 139 128 116 124 122 119 119 118
323 326 324 322 318 320 314 315 313 313 324 284 289 244 199 175 176 183 193 211 224 225 227 224 213 149 290 145 107 160 180 167 239 135 233 96 252 43 190 175 71 320 293 174 99 149 139 192 236 247 244 233 244 165 211 74 133 149 132 141 45 348 113 141 142 162 188 216 136 152 144 146 148 153 157 157 161 155 155 151 137 140 133 135 125 121 119 108
329 327 325 321 319 317 316 310 311 308 293 276 280 242 286 189 300 349 189 194 218 232 237 259 220 209 243 135 194 170 189 182 214 153 149 250 135 242 112 254 201 247 281 188 63 9 277 278 220 252 245 197 225 145 148 101 99 95 93 93 126 159 134 112 142 154 168 169 150 149 146 145 155 151 164 158 164 151 150 151 141 148 136 139 127 127 121 125
328 329 323 321 321 316 320 313 300 300 236 212 212 250 249 316 265 234 240 272 210 212 231 249 152 233 185 282 155 312 237 225 195 153 176 228 203 182 237 249 221 239 255 220 174 179 229 203 159 224 224 248 267 33 141 117 117 99 128 94 80 109 139 186 190 165 175 203 152 126 140 138 147 151 164 161 172 143 154 152 153 140 132 135 134 130 125 122
329 328 324 321 322 326 319 325 295 218 224 211 223 238 34 358 266 191 223 270 315 180 224 208 217 193 175 222 136 212 246 105 309 154 86 274 253 93 236 207 217 188 205 227 242 177 283 239 221 192 213 237 239 158 205 150 79 113 132 163 180 150 173 187 147 182 186 143 158 155 138 92 213 165 164 167 178 148 157 167 154 141 145 145 131 128 142 129
328 328 324 323 327 326 335 316 232 229 205 202 246 246 9 59 44 47 80 25 262 256 218 215 263 205 141 68 135 241 185 358 217 215 122 273 255 223 299 357 9 289 325 46 262 50 288 31 13 257 224 214 260 224 128 121 107 265 139 190 169 154 177 178 156 145 62 173 193 144 156 182 185 174 172 160 185 170 167 168 165 162 156 138 146 139 155 137
329 326 324 324 324 339 321 308 232 272 232 261 354 22 353 50 45 72 74 194 284 214 175 188 218 108 51 192 130 239 177 203 209 146 221 165 355 299 322 239 129 3 17 333 46 195 314 71 283 303 226 222 227 104 125 130 108 273 171 184 183 145 156 146 116 75 64 257 167 192 276 137 166 176 170 175 173 176 168 181 170 168 168 155 164 144 141 150
327 323 321 323 323 329 295 272 352 317 291 205 2 64 347 77 79 136 115 233 266 196 195 107 195 144 242 144 201 73 233 149 190 135 221 139 248 121 290 31 223 162 214 68 45 341 299 116 221 133 269 255 205 47 325 186 150 154 216 188 177 146 141 181 132 142 172 167 242 186 105 137 171 182 189 183 190 182 174 186 183 172 178 165 156 154 149 166
324 321 320 317 314 295 302 322 311 308 77 27 348 24 16 46 139 72 78 22 190 209 183 146 315 117 239 157 229 191 72 96 236 147 295 116 261 144 269 342 9 5 99 281 307 145 313 27 255 216 42 24 18 214 193 315 324 29 200 224 202 162 153 164 152 145 331 271 165 131 140 121 218 244 240 193 180 203 191 193 183 193 168 175 165 158 171 152
324 320 318 316 303 272 266 256 299 287 20 18 3 18 11 26 229 181 131 265 100 201 7 147 144 193 228 153 222 256 239 179 254 135 170 230 241 334 278 136 262 321 72 112 198 111 109 337 360 338 49 252 205 108 32 30 310 142 197 248 137 137 202 183 171 163 257 105 224 269 248 275 159 185 187 189 201 196 193 198 191 189 183 174 169 152 174 158
322 319 319 320 300 207 201 198 245 261 352 12 348 38 290 255 206 205 158 254 216 186 202 82 234 170 216 178 210 178 238 149 265 127 190 244 136 212 195 339 304 250 108 134 41 39 50 62 326 351 23 4 31 62 344 65 43 75 218 192 198 201 208 140 124 130 58 321 227 211 204 216 163 180 196 184 208 199 178 194 192 179 181 178 166 164 165 182
320 316 317 323 286 352 320 260 273 307 9 349 339 312 237 206 290 248 212 314 204 190 164 172 170 177 182 219 186 178 243 173 199 202 171 213 180 235 80 204 349 9 334 355 95 141 171 154 189 63 281 121 306 130 135 15 120 234 130 284 263 247 230 200 96 141 157 257 152 185 192 206 265 221 192 202 223 195 194 177 184 180 176 183 161 171 171 184
317 313 305 284 294 336 287 322 346 339 351 330 315 274 233 6 352 225 255 98 256 138 233 143 174 190 180 211 260 180 192 199 185 193 226 206 149 260 159 11 359 44 344 331 318 229 124 53 83 131 30 339 37 299 128 171 113 206 79 348 281 283 213 336 63 15 249 229 180 167 140 280 78 204 168 185 217 195 182 178 181 181 182 173 164 174 183 166
317 313 302 261 274 246 248 278 325 332 319 319 311 218 117 119 243 275 250 235 272 240 153 288 160 198 144 221 220 227 143 235 130 222 261 173 269 173 121 146 187 121 229 275 289 338 350 109 191 93 199 61 15 37 349 61 358 41 69 257 281 287 299 254 128 207 13 355 297 174 161 165 78 62 40 173 202 198 156 169 174 184 164 166 174 171 167 166
312 313 307 249 216 250 287 300 292 313 313 307 255 80 355 265 217 231 247 208 235 264 183 206 151 202 168 209 157 120 162 184 183 178 224 141 225 296 277 156 160 160 152 214 202 67 284 247 21 37 15 83 59 43 118 342 33 340 109 245 243 238 333 352 16 311 299 261 274 168 204 130 218 119 156 251 206 143 141 137 163 166 155 166 164 157 160 172
310 287 247 277 255 254 246 257 270 288 307 283 223 261 250 256 359 273 301 252 221 214 200 172 219 146 179 291 114 228 301 161 233 213 194 209 215 226 235 149 135 265 104 108 332 225 237 334 174 40 133 239 143 125 116 93 15 231 90 280 289 207 224 321 61 185 217 235 241 233 77 176 110 186 303 277 144 133 132 149 158 151 159 154 147 159 165 173
307 239 173 255 255 235 215 229 214 248 297 304 265 169 259 112 264 336 233 260 151 181 167 169 265 197 135 247 102 247 157 281 153 264 212 203 122 253 95 79 260 118 286 131 181 250 131 355 176 120 186 289 69 118 150 160 71 205 92 233 281 340 142 222 205 217 232 260 44 261 96 84 115 215 264 212 175 145 135 145 155 140 157 152 151 164 167 172
251 260 221 233 233 237 227 261 289 307 279 278 273 276 148 261 238 171 246 268 14 304 111 269 137 266 161 117 259 165 143 242 188 187 218 198 180 213 202 191 129 182 284 341 216 118 141 232 211 187 175 106 97 6 138 158 130 145 268 315 272 275 17 40 186 269 282 310 98 58 103 66 314 259 305 301 195 159 142 149 158 155 164 159 151 176 161 176
295 260 258 269 260 129 317 305 9 278 278 271 255 252 159 238 257 206 260 253 160 126 239 178 35 301 118 183 215 249 135 252 113 197 327 143 18 318 11 323 134 247 350 135 268 104 296 196 182 237 75 122 159 221 195 179 202 227 250 273 244 309 245 4 331 116 303 323 8 114 147 138 144 183 232 241 215 174 164 162 155 154 153 157 157 168 168 177
270 278 250 221 254 246 115 25 278 281 271 266 274 259 112 225 268 246 220 303 358 25 243 105 248 208 308 312 96 264 156 261 99 262 261 121 163 299 296 346 127 102 189 275 239 7 98 309 131 119 266 121 214 207 166 264 189 239 235 236 279 116 131 206 191 287 212 322 303 78 330 93 236 186 249 207 236 171 183 170 153 165 162 159 164 153 158 155
255 247 257 201 203 120 239 209 276 266 265 260 313 292 220 173 254 245 96 277 155 218 33 328 191 20 265 329 317 258 243 275 130 53 285 141 236 159 259 158 301 98 14 189 281 69 353 81 316 133 98 234 218 194 157 198 203 223 253 138 244 206 152 265 289 31 313 308 11 6 126 122 152 117 19 320 224 169 181 153 156 155 151 151 142 145 162 163
240 268 283 90 191 135 242 244 250 251 246 180 181 293 298 218 272 193 113 242 266 215 330 240 88 233 216 305 253 285 245 264 281 207 218 212 209 171 184 344 145 274 108 244 266 95 256 194 290 237 228 255 23 146 20 349 354 335 342 338 27 355 57 57 248 191 262 349 143 237 103 125 87 122 106 266 289 192 146 175 90 157 141 147 161 156 180 158
255 232 196 123 74 249 249 257 240 242 254 201 213 193 289 270 249 158 173 164 284 287 151 283 227 300 116 223 271 259 266 243 236 290 138 277 80 304 84 355 232 310 301 161 309 99 8 1 270 239 203 280 73 69 53 319 314 298 320 321 7 321 314 293 332 49 312 111 227 158 151 114 44 122 173 188 271 126 213 98 156 153 147 125 164 123 107 126
234 257 100 180 158 223 232 255 257 241 248 211 137 192 211 239 269 143 245 154 218 134 327 283 23 40 33 294 19 264 135 260 294 263 10 346 86 76 90 42 25 259 272 330 119 90 142 257 281 273 258 135 139 128 98 357 298 270 220 216 299 353 25 331 336 338 330 314 282 30 72 96 101 201 155 224 153 342 213 145 137 113 207 135 195 138 158 176
247 250 173 154 185 235 248 246 238 247 269 223 215 234 270 257 263 208 295 141 311 119 214 315 189 210 351 91 267 290 53 294 67 285 247 217 87 37 96 321 202 228 235 85 34 46 261 144 295 353 295 247 194 148 165 52 293 265 72 52 354 331 286 11 319 253 264 11 357 327 75 160 165 211 223 160 87 142 187 130 170 142 179 142 172 158 157 148
255 252 235 161 205 193 237 225 256 313 356 321 335 297 279 273 234 313 318 353 116 45 97 315 346 32 195 129 302 340 55 313 330 51 349 294 92 186 72 12 5 312 61 57 6 216 230 54 313 281 9 358 310 308 345 344 337 350 351 15 3 343 34 299 295 352 307 39 26 11 67 86 149 211 196 133 133 210 135 147 136 136 134 169 148 163 142 151
243 250 189 189 174 209 242 271 299 296 334 355 275 239 230 274 239 184 279 249 138 7 307 350 256 210 329 250 234 218 218 129 260 213 204 209 132 122 141 147 208 63 45 40 319 315 315 3 238 28 143 148 212 261 314 299 292 336 42 313 3 15 2 331 305 293 30 346 56 15 80 184 190 174 197 145 143 144 151 143 157 134 155 146 135 142 163 137
307 271 174 224 173 228 242 215 233 223 292 277 269 249 265 217 250 185 161 274 122 159 84 328 324 25 317 7 1 291 7 276 136 328 247 173 81 94 192 191 184 76 31 74 230 279 288 276 287 199 186 183 219 303 5 258 280 307 290 101 35 355 25 327 349 14 354 297 101 157 237 299 109 92 154 138 130 149 150 154 143 139 132 147 135 150 145 164
242 254 267 352 302 184 213 234 225 228 179 249 271 301 270 251 245 204 149 281 31 135 4 148 249 314 88 67 115 6 271 193 57 194 283 96 124 123 159 212 198 114 196 215 162 276 292 274 165 301 264 327 314 310 279 320 319 358 5 75 119 37 359 322 16 23 349 17 35 62 346 309 114 177 176 125 133 142 151 152 158 148 164 170 156 165 174 183
262 312 316 117 227 250 305 353 306 232 170 199 222 245 260 290 247 219 209 143 286 148 183 121 295 246 147 184 250 349 322 18 332 39 301 20 106 158 125 164 127 138 192 245 143 147 263 275 315 265 323 249 170 234 19 270 182 247 184 180 14 168 79 31 54 29 351 14 16 345 346 61 63 118 120 121 115 132 140 161 157 168 175 170 153 184 201 204
254 286 271 165 261 272 280 263 241 245 218 92 294 292 282 249 259 284 45 343 120 284 131 283 233 190 111 297 59 298 39 88 25 224 207 307 108 258 106 279 137 164 183 184 165 110 243 56 13 303 288 199 174 149 250 264 195 254 157 317 175 84 288 80 330 127 49 275 324 199 39 180 76 63 104 109 135 118 111 136 142 152 167 176 176 192 210 222
323 295 329 307 269 228 231 219 257 248 230 198 245 242 253 253 247 338 280 116 127 256 122 256 21 98 98 184 349 356 340 48 161 201 151 245 214 321 296 119 116 168 185 139 211 125 239 258 265 262 273 215 163 188 188 277 294 296 309 180 216 135 253 145 313 59 348 12 53 353 226 138 133 120 108 92 165 142 150 184 171 169 188 184 211 218 244 317
324 326 291 260 271 295 255 207 231 234 247 221 210 238 259 252 268 225 269 52 306 354 334 8 30 308 125 25 198 354 145 265 358 127 180 202 290 294 253 4 231 169 160 196 138 207 171 257 243 273 267 264 136 207 170 219 272 263 233 217 211 161 334 78 178 118 227 320 282 15 52 87 138 146 148 180 185 177 157 178 90 198 34 64 100 115 353 23